Regional Weather Roundup
Issued by NWS Jackson, KY

Home | Current Version | Previous Version | Text Only | Print | Product List | Glossary On
Versions: 1 2 3 4 5 6 7 8 9 10 11 12 13 14 15 16 17 18 19 20 21 22 23 24 25 26 27 28 29 30 31 32 33 34 35 36 37 38 39 40 41 42 43 44 45 46 47 48 49 50
000
ASUS43 KJKL 300110
RWRJKL

EAST KENTUCKY HOURLY WEATHER ROUNDUP
NATIONAL WEATHER SERVICE JACKSON KY
900 PM EDT WED JUL 29 2015

NOTE: "FAIR" INDICATES FEW OR NO CLOUDS BELOW 12,000 FEET WITH
NO SIGNIFICANT WEATHER AND/OR OBSTRUCTIONS TO VISIBILITY.

* THESE REPORTS ARE NOT UNDER NWS QUALITY CONTROL AND MAY NOT
  REPORT WEATHER SUCH AS PRECIPITATION AND FOG.

KYZ079-080-083-085-087-088-110-112-115-119-120-300200
...EASTERN KENTUCKY...

CITY           SKY/WX    TMP DP  RH WIND       PRES   REMARKS
JACKSON        CLOUDY    80  73  79 W5        30.01R
LONDON         PTCLDY    84  71  65 CALM      30.01S
SOMERSET*      CLOUDY    79  73  83 CALM      30.02R
MONTICELLO*    PTCLDY    81  79  94 CALM      30.03R FOG     HX  90
WILLIAMSBURG*  CLEAR     81  79  94 CALM      30.01S
MIDDLESBORO*   CLEAR     80  74  79 CALM      30.00F
HAZARD APT*    MOCLDY    82  72  69 CALM      30.00S
PIKEVILLE APT* CLEAR     81  73  78 CALM      30.01R
BIG SANDY*     PTCLDY    82  75  80 CALM      29.99S
MOREHEAD APT*  MOCLDY    77  73  88 CALM      30.00S
$$

KYZ035-036-041-042-044-050-067-078-099-300200
...CENTRAL KENTUCKY...

CITY           SKY/WX    TMP DP  RH WIND       PRES   REMARKS
MT STERLING*   MOCLDY    73  73 100 W5        29.99F
FLEMING/MASON* PTCLDY    75  73  94 SW3       29.99S
DANVILLE*      LGT RAIN  72  70  94 SW6       30.03F
RICHMOND*      MOCLDY    79  72  78 W12G17    30.00R
LEXINGTON      TSTM      73  70  90 SE3       29.99F
FRANKFORT      LGT RAIN  73  70  90 W3        29.97S
$$

KYZ091>093-OHZ055-061-077-WVZ005-015-034-035-042-300200
...SOUTHERN OHIO/WEST VIRGINIA...

CITY           SKY/WX    TMP DP  RH WIND       PRES   REMARKS
COVINGTON      CLOUDY    76  74  93 CALM      29.97F THUNDER FOG
COLUMBUS       CLOUDY    75  72  90 CALM      29.94S
DAYTON         MOCLDY    78  76  93 SW8       29.98R
WILMINGTON     CLOUDY    75  70  84 SW7       29.97R
HUNTINGTON     PTCLDY    81  75  82 SW3       29.95R
CHARLESTON     MOCLDY    78  73  84 CALM      29.96S
PINEVILLE*     MOCLDY    76  74  94 MISG      30.08R
BECKLEY        CLEAR     74  69  85 CALM      30.08R
BLUEFIELD      MOCLDY    76  67  73 CALM      30.11R
$$

VAZ002-007-008-TNZ017-027-036-066-071-300200
...SOUTHWEST VIRGINIA/EAST TENNESSEE...

CITY           SKY/WX    TMP DP  RH WIND       PRES   REMARKS
WISE*          CLEAR     79  66  65 CALM      30.11S
ABINGDON*      MOCLDY    80  71  74 CALM      30.06R
BRISTOL        PTCLDY    84  71  65 W5        30.01S
KNOXVILLE      CLOUDY    86  71  60 CALM      29.97F HX  91
OAK RIDGE      PTCLDY    85  75  72 CALM      29.99F HX  93
CROSSVILLE     MOCLDY    82  73  74 CALM      30.06S
NASHVILLE      PTCLDY    87  77  72 W6        29.98R HX  99
$$

...KEY TO REMARKS...
VSB - VISIBILITY IN MILES
WCI - WIND CHILL INDEX
HX  - HEAT INDEX

$$



USA.gov is the U.S. government's official web portal to all federal, state and local government web resources and services.